User: anonymous
Location: Columbia
(38.9520°N, 92.3340°W)
Time: 22:58:12
(UTC-05:00)
Language:

CZ-2C R/B - Orbit

View from above orbital plane
View from above orbital plane
View from above satellite
View from above satellite

Ground track
Ground track

The orbit data is extracted from the following two-line orbital elements,

1 28480U 04046B   14113.53457030  .00000157  00000-0  75296-4 0  3195
2 28480 098.0822 273.7608 0142807 024.1322 015.5861 14.25284574490306
Epoch (UTC): 23 April 2014 12:49:46
Eccentricity: 0.0142807
inclination: 98.0822°
perigee height: 705 km
apogee height: 910 km
right ascension of ascending node: 273.7608°
argument of perigee: 24.1322°
revolutions per day: 14.25284574
mean anomaly at epoch: 15.5861°
orbit number at epoch: 49030

The dashed part of the orbit path shows where the satellite is in the earth's shadow,  

DLR